Terminal Aerodrome Forecast
Issued by NWS Portland, OR

Home | Current Version | Previous Version | Text Only | Print | Product List | Glossary On
Versions: 1 2 3 4 5 6 7 8 9 10 11 12 13 14 15 16 17 18 19 20 21 22 23 24 25 26 27 28 29 30 31 32 33 34 35 36 37 38 39 40 41 42
000
FTUS46 KPQR 262340
TAFAST
TAF
KAST 262340Z 2700/2724 28008KT P6SM FEW025
     FM270200 29007KT P6SM OVC012
     FM271000 VRB03KT 4SM BR OVC009
     FM271700 29005KT P6SM OVC015
     FM272200 28006KT P6SM SCT020=

USA.gov is the U.S. government's official web portal to all federal, state and local government web resources and services.